Location: Unspecified
(0.0000°N, 0.0000°E)
Time: 10:07:31
(UTC+00:00)

Courier 1B Rocket - Pass Details

Date: 27 May 2026
Orbit: 920 x 1201 km, 28.2° (Epoch: 9 June)

Event Time Altitude Azimuth Distance (km) Brightness Sun altitude
Rises 20:11:37 0° 218° (SW) 4,063 8.4 -31.0°
Reaches altitude 10° 20:15:13 10° 203° (SSW) 3,120 7.6 -31.8°
Enters shadow 20:16:15 13° 197° (SSW) 2,895 7.4 -32.1°
Maximum altitude 20:20:59 22° 155° (SSE) 2,349 - -33.1°
Drops below altitude 10° 20:26:43 10° 107° (ESE) 3,112 - -34.4°
Sets 20:30:17 0° 93° (E) 4,051 - -35.2°
